CAL160 RCTP-RKSI

Flight info

Callsign CAL160
Flight time 1h 55m
Altitude 39000
Route PIANO1A PIANO L3 SALMI B576 CJU Y722 OLMEN OLMEN2E
Aircraft A343/H-SDE2E3FGHIJ4J5M1RWXY/LB1D1

Departure

Time 2026-05-07 14:34
Airport Taiwan Taoyuan International Airport (RCTP)

Arrival

Time 2026-05-07 16:29
Airport Incheon International Airport (RKSI)
Time Latitude Longitude Altitude Speed Heading
2026-05-07 14:03 25.08035 121.23965 107 ft 0 kts 319°
2026-05-07 14:21 25.08025 121.23974 106 ft 4 kts 319°
2026-05-07 14:21 25.08005 121.23994 103 ft 4 kts 319°
2026-05-07 14:21 25.07984 121.24013 104 ft 4 kts 319°
2026-05-07 14:21 25.07964 121.24033 103 ft 4 kts 319°
2026-05-07 14:22 25.07947 121.24049 105 ft 4 kts 321°
2026-05-07 14:22 25.07929 121.24054 103 ft 4 kts 39°
2026-05-07 14:22 25.07912 121.24034 103 ft 4 kts 49°
2026-05-07 14:22 25.07901 121.24019 104 ft 0 kts 49°
2026-05-07 14:25 25.07901 121.24020 105 ft 1 kts 49°
2026-05-07 14:25 25.07909 121.24030 106 ft 4 kts 49°
2026-05-07 14:26 25.07941 121.24071 105 ft 10 kts 49°
2026-05-07 14:26 25.07984 121.24141 106 ft 11 kts 77°
2026-05-07 14:26 25.07953 121.24201 107 ft 9 kts 139°
2026-05-07 14:26 25.07901 121.24252 104 ft 11 kts 139°
2026-05-07 14:27 25.07842 121.24262 105 ft 8 kts 218°
2026-05-07 14:27 25.07796 121.24207 105 ft 13 kts 229°
2026-05-07 14:27 25.07727 121.24118 104 ft 18 kts 229°
2026-05-07 14:27 25.07641 121.24011 107 ft 19 kts 229°
2026-05-07 14:28 25.07552 121.23899 105 ft 20 kts 229°
2026-05-07 14:28 25.07462 121.23784 105 ft 20 kts 229°
2026-05-07 14:28 25.07368 121.23664 106 ft 21 kts 229°
2026-05-07 14:28 25.07271 121.23541 106 ft 21 kts 229°
2026-05-07 14:29 25.07172 121.23418 106 ft 22 kts 229°
2026-05-07 14:29 25.07073 121.23290 106 ft 22 kts 229°
2026-05-07 14:29 25.06971 121.23161 106 ft 23 kts 229°
2026-05-07 14:29 25.06868 121.23029 107 ft 23 kts 229°
2026-05-07 14:30 25.06762 121.22894 105 ft 23 kts 229°
2026-05-07 14:30 25.06654 121.22757 104 ft 24 kts 229°
2026-05-07 14:30 25.06544 121.22619 103 ft 24 kts 228°
2026-05-07 14:30 25.06436 121.22483 106 ft 22 kts 230°
2026-05-07 14:31 25.06359 121.22383 106 ft 12 kts 228°
2026-05-07 14:31 25.06307 121.22318 105 ft 12 kts 229°
2026-05-07 14:31 25.06249 121.22258 105 ft 10 kts 196°
2026-05-07 14:31 25.06195 121.22265 104 ft 8 kts 159°
2026-05-07 14:32 25.06146 121.22308 102 ft 11 kts 135°
2026-05-07 14:32 25.06099 121.22372 103 ft 6 kts 98°
2026-05-07 14:32 25.06111 121.22393 102 ft 3 kts 45°
2026-05-07 14:32 25.06119 121.22402 100 ft 0 kts 47°
2026-05-07 14:33 25.06142 121.22429 101 ft 21 kts 47°
2026-05-07 14:33 25.06381 121.22731 100 ft 82 kts 49°
2026-05-07 14:33 25.06875 121.23359 101 ft 132 kts 49°
2026-05-07 14:33 25.07572 121.24243 107 ft 172 kts 50°
2026-05-07 14:34 25.08332 121.25168 796 ft 159 kts 49°
2026-05-07 14:34 25.09077 121.26056 1398 ft 160 kts 50°
2026-05-07 14:34 25.09834 121.27003 1733 ft 171 kts 52°
2026-05-07 14:34 25.10632 121.28075 1944 ft 190 kts 53°
2026-05-07 14:35 25.11706 121.29045 2039 ft 217 kts 22°
2026-05-07 14:35 25.13289 121.29262 2213 ft 243 kts 358°
2026-05-07 14:35 25.15043 121.29159 2573 ft 259 kts 355°
2026-05-07 14:35 25.16869 121.29039 3154 ft 266 kts 355°
2026-05-07 14:36 25.18740 121.28937 3836 ft 271 kts 355°
2026-05-07 14:36 25.20638 121.28849 4549 ft 275 kts 355°
2026-05-07 14:36 25.22558 121.28769 5288 ft 278 kts 355°
2026-05-07 14:36 25.24511 121.28692 6102 ft 282 kts 355°
2026-05-07 14:37 25.26492 121.28613 6849 ft 287 kts 355°
2026-05-07 14:37 25.30508 121.28464 8103 ft 293 kts 355°
2026-05-07 14:37 25.32553 121.28392 8782 ft 295 kts 355°
2026-05-07 14:38 25.34611 121.28319 9473 ft 297 kts 355°
2026-05-07 14:38 25.36692 121.28345 10089 ft 302 kts
2026-05-07 14:38 25.38776 121.28943 10410 ft 320 kts 23°
2026-05-07 14:38 25.40641 121.30400 10647 ft 339 kts 44°
2026-05-07 14:39 25.42257 121.32371 10890 ft 354 kts 48°
2026-05-07 14:39 25.43878 121.34486 11122 ft 367 kts 49°
2026-05-07 14:39 25.45555 121.36669 11445 ft 376 kts 48°
2026-05-07 14:39 25.47271 121.38886 11864 ft 381 kts 48°
2026-05-07 14:40 25.49008 121.41119 12305 ft 385 kts 47°
2026-05-07 14:40 25.50769 121.43379 12790 ft 388 kts 47°
2026-05-07 14:40 25.52520 121.45621 13235 ft 391 kts 47°
2026-05-07 14:40 25.54308 121.47912 13687 ft 395 kts 47°
2026-05-07 14:41 25.56116 121.50226 14086 ft 398 kts 47°
2026-05-07 14:41 25.57933 121.52555 14504 ft 400 kts 47°
2026-05-07 14:41 25.59758 121.54893 14942 ft 402 kts 47°
2026-05-07 14:41 25.61591 121.57244 15367 ft 404 kts 47°
2026-05-07 14:42 25.63433 121.59607 15794 ft 406 kts 47°
2026-05-07 14:42 25.65287 121.61986 16190 ft 409 kts 47°
2026-05-07 14:42 25.67155 121.64384 16598 ft 411 kts 47°
2026-05-07 14:42 25.69026 121.66789 17017 ft 413 kts 47°
2026-05-07 14:43 25.70884 121.69177 17441 ft 415 kts 47°
2026-05-07 14:43 25.72779 121.71614 17867 ft 418 kts 47°
2026-05-07 14:43 25.74683 121.74064 18255 ft 421 kts 47°
2026-05-07 14:43 25.76601 121.76533 18581 ft 424 kts 47°
2026-05-07 14:44 25.78531 121.79019 18942 ft 426 kts 47°
2026-05-07 14:44 25.80545 121.81447 19267 ft 428 kts 41°
2026-05-07 14:44 25.82803 121.83604 19609 ft 429 kts 36°
2026-05-07 14:44 25.85176 121.85618 19965 ft 430 kts 34°
2026-05-07 14:45 25.87611 121.87565 20326 ft 432 kts 33°
2026-05-07 14:45 25.90074 121.89496 20684 ft 435 kts 32°
2026-05-07 14:45 25.91746 121.90806 20910 ft 436 kts 33°
2026-05-07 14:45 25.94200 121.92743 21251 ft 439 kts 33°
2026-05-07 14:46 25.96690 121.94727 21608 ft 442 kts 33°
2026-05-07 14:46 25.99188 121.96736 21941 ft 444 kts 33°
2026-05-07 14:46 26.01700 121.98768 22286 ft 446 kts 33°
2026-05-07 14:46 26.04220 122.00805 22627 ft 449 kts 33°
2026-05-07 14:47 26.06773 122.02825 22946 ft 451 kts 32°
2026-05-07 14:47 26.09317 122.04808 23282 ft 453 kts 32°
2026-05-07 14:47 26.11910 122.06820 23592 ft 455 kts 32°
2026-05-07 14:47 26.14520 122.08847 23856 ft 458 kts 32°
2026-05-07 14:48 26.17146 122.10892 24132 ft 460 kts 32°
2026-05-07 14:48 26.19779 122.12948 24391 ft 463 kts 32°
2026-05-07 14:48 26.22427 122.15021 24685 ft 465 kts 32°
2026-05-07 14:48 26.25079 122.17100 24972 ft 467 kts 32°
2026-05-07 14:49 26.27743 122.19192 25257 ft 469 kts 32°
2026-05-07 14:49 26.30417 122.21293 25549 ft 472 kts 32°
2026-05-07 14:49 26.33072 122.23380 25835 ft 474 kts 32°
2026-05-07 14:49 26.35804 122.25528 26141 ft 476 kts 32°
2026-05-07 14:50 26.38483 122.27637 26440 ft 478 kts 32°
2026-05-07 14:50 26.41247 122.29812 26693 ft 482 kts 32°
2026-05-07 14:50 26.43991 122.31973 26985 ft 484 kts 32°
2026-05-07 14:50 26.46723 122.34126 27286 ft 486 kts 32°
2026-05-07 14:51 26.49492 122.36310 27592 ft 488 kts 32°
2026-05-07 14:51 26.52273 122.38505 27882 ft 490 kts 32°
2026-05-07 14:51 26.55064 122.40710 28167 ft 493 kts 32°
2026-05-07 14:51 26.57876 122.42931 28454 ft 495 kts 32°
2026-05-07 14:52 26.60662 122.45133 28748 ft 497 kts 32°
2026-05-07 14:52 26.63493 122.47372 29040 ft 499 kts 32°
2026-05-07 14:52 26.66334 122.49621 29328 ft 501 kts 32°
2026-05-07 14:52 26.69187 122.51880 29608 ft 503 kts 32°
2026-05-07 14:53 26.72055 122.54153 29888 ft 505 kts 32°
2026-05-07 14:53 26.74924 122.56428 30146 ft 508 kts 32°
2026-05-07 14:53 26.77815 122.58723 30401 ft 509 kts 32°
2026-05-07 14:53 26.80706 122.61019 30664 ft 510 kts 32°
2026-05-07 14:54 26.83600 122.63318 30934 ft 512 kts 31°
2026-05-07 14:54 26.86520 122.65640 31209 ft 512 kts 31°
2026-05-07 14:54 26.89382 122.67918 31574 ft 511 kts 31°
2026-05-07 14:54 26.92285 122.70231 31991 ft 509 kts 31°
2026-05-07 14:55 26.95172 122.72532 32381 ft 507 kts 31°
2026-05-07 14:55 26.98049 122.74826 32754 ft 506 kts 31°
2026-05-07 14:55 27.00915 122.77112 33117 ft 505 kts 31°
2026-05-07 14:55 27.03738 122.79366 33482 ft 503 kts 30°
2026-05-07 14:56 27.06586 122.81640 33838 ft 502 kts 30°
2026-05-07 14:56 27.09427 122.83912 34164 ft 501 kts 30°
2026-05-07 14:56 27.12264 122.86185 34471 ft 499 kts 30°
2026-05-07 14:56 27.15087 122.88448 34782 ft 498 kts 30°
2026-05-07 14:57 27.17904 122.90706 35030 ft 498 kts 30°
2026-05-07 14:57 27.20722 122.92967 35288 ft 497 kts 30°
2026-05-07 14:57 27.23526 122.95237 35611 ft 497 kts 31°
2026-05-07 14:57 27.26238 122.97666 35845 ft 500 kts 34°
2026-05-07 14:58 27.28882 123.00224 36098 ft 500 kts 36°
2026-05-07 14:58 27.31488 123.02815 36375 ft 499 kts 36°
2026-05-07 14:58 27.34053 123.05369 36656 ft 498 kts 35°
2026-05-07 14:58 27.36658 123.07939 36934 ft 496 kts 34°
2026-05-07 14:59 27.39273 123.10490 37213 ft 495 kts 34°
2026-05-07 14:59 27.41878 123.13010 37492 ft 493 kts 34°
2026-05-07 14:59 27.44482 123.15516 37772 ft 492 kts 33°
2026-05-07 14:59 27.47083 123.18018 38034 ft 491 kts 33°
2026-05-07 15:00 27.49676 123.20509 38332 ft 489 kts 33°
2026-05-07 15:00 27.52265 123.22995 38606 ft 487 kts 33°
2026-05-07 15:00 27.54843 123.25471 38815 ft 486 kts 33°
2026-05-07 15:00 27.57415 123.27945 38955 ft 487 kts 33°
2026-05-07 15:01 27.62557 123.32893 38980 ft 489 kts 33°
2026-05-07 15:01 27.67722 123.37882 38980 ft 488 kts 32°
2026-05-07 15:02 27.72887 123.42875 38982 ft 488 kts 32°
2026-05-07 15:02 27.78053 123.47875 38982 ft 489 kts 32°
2026-05-07 15:03 27.83218 123.52880 39006 ft 489 kts 32°
2026-05-07 15:03 27.88354 123.57863 38985 ft 489 kts 32°
2026-05-07 15:04 27.93517 123.62879 38985 ft 489 kts 32°
2026-05-07 15:04 27.98684 123.67906 38985 ft 489 kts 32°
2026-05-07 15:05 28.03848 123.72946 38992 ft 488 kts 33°
2026-05-07 15:05 28.09016 123.77982 38988 ft 491 kts 33°
2026-05-07 15:06 28.14176 123.83016 38988 ft 492 kts 33°
2026-05-07 15:06 28.19369 123.88095 38988 ft 492 kts 33°
2026-05-07 15:07 28.24559 123.93178 38990 ft 494 kts 33°
2026-05-07 15:07 28.29773 123.98315 38984 ft 498 kts 36°
2026-05-07 15:08 28.34350 124.04304 38991 ft 509 kts 45°
2026-05-07 15:08 28.38620 124.10731 38991 ft 510 kts 47°
2026-05-07 15:09 28.42834 124.17235 38991 ft 511 kts 47°
2026-05-07 15:09 28.47062 124.23753 38990 ft 511 kts 47°
2026-05-07 15:10 28.51270 124.30218 38990 ft 511 kts 47°
2026-05-07 15:10 28.55503 124.36718 38990 ft 511 kts 47°
2026-05-07 15:11 28.59744 124.43239 38988 ft 512 kts 47°
2026-05-07 15:11 28.63984 124.49768 38996 ft 512 kts 47°
2026-05-07 15:12 28.68210 124.56291 38979 ft 511 kts 47°
2026-05-07 15:12 28.72432 124.62817 38997 ft 511 kts 47°
2026-05-07 15:13 28.77120 124.68755 38992 ft 496 kts 31°
2026-05-07 15:13 28.79931 124.70955 38995 ft 485 kts 20°
2026-05-07 15:13 28.82959 124.72561 38997 ft 476 kts 13°
2026-05-07 15:14 28.89123 124.75160 38991 ft 474 kts 11°
2026-05-07 15:14 28.95363 124.77586 38994 ft 473 kts 10°
2026-05-07 15:15 29.01595 124.80019 38996 ft 474 kts 11°
2026-05-07 15:15 29.07830 124.82492 39002 ft 474 kts 11°
2026-05-07 15:16 29.14072 124.84988 38996 ft 474 kts 11°
2026-05-07 15:16 29.20272 124.87471 39003 ft 475 kts 11°
2026-05-07 15:17 29.26535 124.89980 38999 ft 477 kts 11°
2026-05-07 15:17 29.32798 124.92493 38998 ft 477 kts 11°
2026-05-07 15:18 29.39065 124.95012 39015 ft 477 kts 11°
2026-05-07 15:18 29.45333 124.97533 39000 ft 478 kts 11°
2026-05-07 15:19 29.51609 125.00062 38995 ft 478 kts 11°
2026-05-07 15:19 29.57898 125.02598 38999 ft 479 kts 11°
2026-05-07 15:20 29.64144 125.05121 38996 ft 479 kts 11°
2026-05-07 15:20 29.70439 125.07668 38998 ft 479 kts 11°
2026-05-07 15:21 29.76735 125.10218 39001 ft 479 kts 11°
2026-05-07 15:21 29.83025 125.12769 39003 ft 479 kts 11°
2026-05-07 15:22 29.89281 125.15309 39001 ft 479 kts 11°
2026-05-07 15:22 29.95580 125.17870 38999 ft 480 kts 11°
2026-05-07 15:23 30.01874 125.20436 39013 ft 480 kts 11°
2026-05-07 15:23 30.08180 125.23014 39000 ft 480 kts 11°
2026-05-07 15:24 30.14484 125.25594 38998 ft 480 kts 11°
2026-05-07 15:24 30.20740 125.28159 38998 ft 480 kts 11°
2026-05-07 15:25 30.27041 125.30744 38999 ft 481 kts 11°
2026-05-07 15:25 30.33362 125.33342 38998 ft 481 kts 11°
2026-05-07 15:26 30.39675 125.35941 38996 ft 481 kts 11°
2026-05-07 15:26 30.45999 125.38548 38998 ft 482 kts 11°
2026-05-07 15:27 30.52282 125.41141 39001 ft 483 kts 11°
2026-05-07 15:27 30.58612 125.43758 39002 ft 483 kts 11°
2026-05-07 15:28 30.64936 125.46376 39014 ft 483 kts 11°
2026-05-07 15:28 30.71275 125.49002 39003 ft 484 kts 11°
2026-05-07 15:29 30.77620 125.51637 39001 ft 484 kts 11°
2026-05-07 15:29 30.83938 125.54264 39025 ft 484 kts 11°
2026-05-07 15:30 30.90293 125.56910 39008 ft 484 kts 11°
2026-05-07 15:30 30.96614 125.59545 39002 ft 485 kts 11°
2026-05-07 15:31 31.02962 125.62195 39005 ft 485 kts 11°
2026-05-07 15:31 31.09317 125.64851 39015 ft 485 kts 11°
2026-05-07 15:32 31.15675 125.67512 39005 ft 485 kts 11°
2026-05-07 15:32 31.22028 125.70174 39005 ft 485 kts 11°
2026-05-07 15:33 31.28379 125.72839 39011 ft 485 kts 11°
2026-05-07 15:33 31.34702 125.75497 38989 ft 486 kts 11°
2026-05-07 15:34 31.41075 125.78181 39007 ft 487 kts 11°
2026-05-07 15:34 31.47453 125.80870 39008 ft 487 kts 11°
2026-05-07 15:35 31.52761 125.83110 39009 ft 488 kts 11°
2026-05-07 15:35 31.59143 125.85809 39007 ft 488 kts 11°
2026-05-07 15:36 31.65536 125.88511 39014 ft 488 kts 11°
2026-05-07 15:36 31.71954 125.91202 39007 ft 488 kts 11°
2026-05-07 15:37 31.78352 125.93891 39007 ft 488 kts 11°
2026-05-07 15:37 31.84718 125.96583 39003 ft 488 kts 11°
2026-05-07 15:38 31.91130 125.99289 39001 ft 489 kts 11°
2026-05-07 15:38 31.97536 126.01997 39001 ft 489 kts 11°
2026-05-07 15:39 32.03944 126.04714 39014 ft 489 kts 11°
2026-05-07 15:39 32.10354 126.07440 38996 ft 490 kts 11°
2026-05-07 15:40 32.16779 126.10161 38996 ft 490 kts 11°
2026-05-07 15:40 32.23163 126.12863 39014 ft 490 kts 11°
2026-05-07 15:41 32.29583 126.15589 38996 ft 490 kts 11°
2026-05-07 15:41 32.36011 126.18325 38996 ft 491 kts 11°
2026-05-07 15:42 32.42442 126.21066 39010 ft 491 kts 12°
2026-05-07 15:42 32.48871 126.23811 38999 ft 491 kts 12°
2026-05-07 15:43 32.55269 126.26550 38991 ft 492 kts 12°
2026-05-07 15:43 32.61724 126.29323 39010 ft 492 kts 12°
2026-05-07 15:44 32.68172 126.32088 38993 ft 492 kts 12°
2026-05-07 15:44 32.74623 126.34862 38999 ft 493 kts 12°
2026-05-07 15:45 32.81065 126.37638 39011 ft 493 kts 12°
2026-05-07 15:45 32.87522 126.40425 38997 ft 493 kts 12°
2026-05-07 15:46 32.97159 126.44593 38996 ft 493 kts 12°
2026-05-07 15:47 33.03617 126.47387 38992 ft 493 kts 12°
2026-05-07 15:47 33.10076 126.50162 38994 ft 493 kts 12°
2026-05-07 15:48 33.16538 126.52938 38998 ft 494 kts 12°
2026-05-07 15:48 33.23010 126.55724 39003 ft 494 kts 12°
2026-05-07 15:49 33.29494 126.58522 39001 ft 494 kts 12°
2026-05-07 15:49 33.35963 126.61322 39027 ft 494 kts 12°
2026-05-07 15:50 33.42438 126.64138 39010 ft 494 kts 12°
2026-05-07 15:50 33.48863 126.66940 39003 ft 494 kts 12°
2026-05-07 15:51 33.55371 126.69480 39031 ft 486 kts
2026-05-07 15:51 33.62008 126.70540 39005 ft 479 kts 358°
2026-05-07 15:52 33.68650 126.71257 39007 ft 478 kts 356°
2026-05-07 15:52 33.75257 126.71915 39022 ft 479 kts 356°
2026-05-07 15:53 33.81905 126.72594 38996 ft 480 kts 357°
2026-05-07 15:53 33.85232 126.72943 38804 ft 480 kts 357°
2026-05-07 15:53 33.88561 126.73296 38552 ft 479 kts 357°
2026-05-07 15:53 33.91884 126.73652 38282 ft 480 kts 357°
2026-05-07 15:54 33.95216 126.74001 38037 ft 481 kts 357°
2026-05-07 15:54 33.98547 126.74347 37763 ft 481 kts 357°
2026-05-07 15:54 34.01881 126.74693 37503 ft 481 kts 357°
2026-05-07 15:54 34.05220 126.75038 37232 ft 482 kts 357°
2026-05-07 15:55 34.08576 126.75387 36966 ft 484 kts 357°
2026-05-07 15:55 34.11929 126.75738 36707 ft 484 kts 357°
2026-05-07 15:55 34.15294 126.76091 36486 ft 485 kts 357°
2026-05-07 15:55 34.18657 126.76445 36234 ft 486 kts 357°
2026-05-07 15:56 34.22037 126.76801 35983 ft 486 kts 357°
2026-05-07 15:56 34.25366 126.77152 35744 ft 487 kts 357°
2026-05-07 15:56 34.28749 126.77515 35501 ft 488 kts 357°
2026-05-07 15:56 34.32129 126.77875 35262 ft 488 kts 357°
2026-05-07 15:57 34.35522 126.78234 35048 ft 489 kts 356°
2026-05-07 15:57 34.38919 126.78594 34813 ft 490 kts 357°
2026-05-07 15:57 34.42314 126.78954 34589 ft 490 kts 357°
2026-05-07 15:57 34.45728 126.79317 34345 ft 491 kts 357°
2026-05-07 15:58 34.49135 126.79679 34119 ft 492 kts 357°
2026-05-07 15:58 34.52499 126.80038 33884 ft 492 kts 357°
2026-05-07 15:58 34.55912 126.80402 33650 ft 493 kts 356°
2026-05-07 15:58 34.59342 126.80768 33388 ft 495 kts 356°
2026-05-07 15:59 34.62786 126.81136 33136 ft 495 kts 356°
2026-05-07 15:59 34.66230 126.81505 32876 ft 497 kts 356°
2026-05-07 15:59 34.69686 126.81876 32625 ft 498 kts 356°
2026-05-07 15:59 34.73103 126.82242 32377 ft 499 kts 356°
2026-05-07 16:00 34.76564 126.82614 32154 ft 500 kts 356°
2026-05-07 16:00 34.80034 126.82986 31906 ft 502 kts 356°
2026-05-07 16:00 34.83524 126.83359 31662 ft 503 kts 356°
2026-05-07 16:00 34.87012 126.83733 31420 ft 504 kts 356°
2026-05-07 16:01 34.90515 126.84111 31180 ft 505 kts 356°
2026-05-07 16:01 34.94014 126.84491 30944 ft 504 kts 356°
2026-05-07 16:01 34.97497 126.84870 30700 ft 503 kts 356°
2026-05-07 16:01 35.00983 126.85249 30466 ft 502 kts 356°
2026-05-07 16:02 35.04454 126.85626 30233 ft 500 kts 356°
2026-05-07 16:02 35.07922 126.86002 29992 ft 499 kts 356°
2026-05-07 16:02 35.11374 126.86377 29722 ft 498 kts 356°
2026-05-07 16:02 35.14820 126.86755 29505 ft 496 kts 356°
2026-05-07 16:03 35.18260 126.87132 29230 ft 495 kts 356°
2026-05-07 16:03 35.21682 126.87503 29023 ft 493 kts 356°
2026-05-07 16:03 35.25102 126.87872 28996 ft 493 kts 356°
2026-05-07 16:04 35.31921 126.88609 28992 ft 491 kts 356°
2026-05-07 16:04 35.38696 126.89349 29004 ft 492 kts 356°
2026-05-07 16:05 35.45513 126.90083 29001 ft 491 kts 356°
2026-05-07 16:05 35.52329 126.90832 29006 ft 491 kts 356°
2026-05-07 16:06 35.59149 126.91579 29004 ft 492 kts 356°
2026-05-07 16:06 35.65974 126.92323 29007 ft 492 kts 356°
2026-05-07 16:07 35.72794 126.93071 29009 ft 492 kts 356°
2026-05-07 16:07 35.79625 126.93822 29006 ft 493 kts 355°
2026-05-07 16:08 35.86438 126.94312 29003 ft 482 kts 347°
2026-05-07 16:08 35.89720 126.93884 28680 ft 468 kts 341°
2026-05-07 16:08 35.92924 126.93220 27804 ft 468 kts 340°
2026-05-07 16:08 35.96139 126.92489 27035 ft 470 kts 339°
2026-05-07 16:09 35.99308 126.91758 26326 ft 469 kts 339°
2026-05-07 16:09 36.02513 126.91021 25654 ft 467 kts 339°
2026-05-07 16:09 36.05706 126.90284 25019 ft 464 kts 339°
2026-05-07 16:09 36.08845 126.89560 24099 ft 452 kts 339°
2026-05-07 16:10 36.11886 126.88859 23400 ft 440 kts 339°
2026-05-07 16:10 36.14882 126.88161 22854 ft 435 kts 339°
2026-05-07 16:10 36.17847 126.87466 22347 ft 430 kts 338°
2026-05-07 16:10 36.20774 126.86781 21818 ft 426 kts 338°
2026-05-07 16:11 36.23671 126.86104 21310 ft 422 kts 338°
2026-05-07 16:11 36.26541 126.85433 20809 ft 417 kts 338°
2026-05-07 16:11 36.29385 126.84768 20309 ft 413 kts 339°
2026-05-07 16:11 36.32161 126.84118 19820 ft 409 kts 339°
2026-05-07 16:12 36.34956 126.83462 19352 ft 406 kts 339°
2026-05-07 16:12 36.37730 126.82814 18868 ft 404 kts 339°
2026-05-07 16:12 36.40481 126.82168 18350 ft 402 kts 339°
2026-05-07 16:12 36.43211 126.81521 17835 ft 398 kts 339°
2026-05-07 16:13 36.45923 126.80883 17334 ft 394 kts 339°
2026-05-07 16:13 36.48610 126.80252 16854 ft 390 kts 340°
2026-05-07 16:13 36.51232 126.79638 16381 ft 386 kts 340°
2026-05-07 16:13 36.53859 126.79022 15911 ft 382 kts 340°
2026-05-07 16:14 36.56451 126.78412 15437 ft 378 kts 340°
2026-05-07 16:14 36.59024 126.77805 14987 ft 374 kts 341°
2026-05-07 16:14 36.61568 126.77206 14500 ft 370 kts 341°
2026-05-07 16:14 36.64079 126.76610 14034 ft 366 kts 342°
2026-05-07 16:15 36.66573 126.76022 13552 ft 363 kts 342°
2026-05-07 16:15 36.69042 126.75439 13090 ft 359 kts 342°
2026-05-07 16:15 36.71485 126.74863 12646 ft 354 kts 342°
2026-05-07 16:15 36.73890 126.74303 12191 ft 350 kts 343°
2026-05-07 16:16 36.76271 126.73741 11757 ft 346 kts 343°
2026-05-07 16:16 36.78594 126.73186 11317 ft 342 kts 343°
2026-05-07 16:16 36.80919 126.72632 10881 ft 339 kts 343°
2026-05-07 16:16 36.83219 126.72087 10579 ft 331 kts 343°
2026-05-07 16:17 36.85442 126.71562 10455 ft 319 kts 343°
2026-05-07 16:17 36.87579 126.71056 10334 ft 306 kts 343°
2026-05-07 16:17 36.89638 126.70568 10208 ft 296 kts 343°
2026-05-07 16:17 36.91638 126.70092 10082 ft 287 kts 343°
2026-05-07 16:18 36.93572 126.69631 9958 ft 278 kts 343°
2026-05-07 16:18 36.95436 126.69186 9728 ft 274 kts 343°
2026-05-07 16:18 36.97316 126.68735 9377 ft 274 kts 343°
2026-05-07 16:18 36.99180 126.68288 9060 ft 272 kts 343°
2026-05-07 16:19 37.00411 126.67994 8855 ft 271 kts 344°
2026-05-07 16:19 37.02875 126.67406 8437 ft 268 kts 344°
2026-05-07 16:19 37.04701 126.66970 8129 ft 266 kts 344°
2026-05-07 16:19 37.06499 126.66542 7916 ft 258 kts 344°
2026-05-07 16:20 37.07644 126.66272 7778 ft 247 kts 344°
2026-05-07 16:20 37.09283 126.65886 7412 ft 233 kts 344°
2026-05-07 16:20 37.11334 126.65397 7007 ft 224 kts 345°
2026-05-07 16:20 37.12371 126.65145 6926 ft 224 kts 345°
2026-05-07 16:21 37.14388 126.64659 6667 ft 223 kts 345°
2026-05-07 16:21 37.15396 126.64417 6519 ft 222 kts 345°
2026-05-07 16:21 37.16908 126.64053 6275 ft 221 kts 345°
2026-05-07 16:21 37.18415 126.63691 6018 ft 220 kts 345°
2026-05-07 16:22 37.19916 126.63331 5754 ft 219 kts 346°
2026-05-07 16:22 37.21410 126.62973 5507 ft 217 kts 346°
2026-05-07 16:22 37.22851 126.62460 5342 ft 214 kts 334°
2026-05-07 16:22 37.24124 126.61548 5138 ft 211 kts 326°
2026-05-07 16:23 37.25349 126.60482 4658 ft 218 kts 324°
2026-05-07 16:23 37.26585 126.59380 4057 ft 215 kts 326°
2026-05-07 16:23 37.27768 126.58336 3786 ft 199 kts 326°
2026-05-07 16:23 37.28846 126.57375 3601 ft 181 kts 326°
2026-05-07 16:24 37.29832 126.56497 3452 ft 168 kts 326°
2026-05-07 16:24 37.30774 126.55661 3267 ft 164 kts 327°
2026-05-07 16:24 37.31703 126.54837 3058 ft 162 kts 327°
2026-05-07 16:24 37.32620 126.54022 2835 ft 161 kts 327°
2026-05-07 16:25 37.33510 126.53231 2658 ft 155 kts 326°
2026-05-07 16:25 37.34381 126.52457 2416 ft 151 kts 326°
2026-05-07 16:25 37.35219 126.51712 2197 ft 144 kts 326°
2026-05-07 16:25 37.36002 126.51015 2011 ft 133 kts 326°
2026-05-07 16:26 37.36734 126.50365 1844 ft 127 kts 325°
2026-05-07 16:26 37.37460 126.49720 1678 ft 128 kts 326°
2026-05-07 16:26 37.38190 126.49071 1487 ft 129 kts 326°
2026-05-07 16:26 37.38921 126.48420 1315 ft 128 kts 324°
2026-05-07 16:27 37.39649 126.47771 1132 ft 128 kts 324°
2026-05-07 16:27 37.40375 126.47125 967 ft 128 kts 324°
2026-05-07 16:27 37.41101 126.46482 787 ft 126 kts 323°
2026-05-07 16:27 37.41819 126.45841 626 ft 126 kts 322°
2026-05-07 16:28 37.42526 126.45212 417 ft 125 kts 323°
2026-05-07 16:28 37.43235 126.44586 278 ft 125 kts 322°
2026-05-07 16:28 37.43941 126.43955 132 ft 124 kts 323°
2026-05-07 16:28 37.44636 126.43340 39 ft 115 kts 324°
2026-05-07 16:29 37.45188 126.42847 35 ft 82 kts 324°
2026-05-07 16:29 37.45589 126.42491 37 ft 55 kts 325°
2026-05-07 16:29 37.45831 126.42293 37 ft 36 kts 336°
2026-05-07 16:29 37.45988 126.42249 37 ft 12 kts
2026-05-07 16:30 37.46042 126.42309 37 ft 11 kts 62°
2026-05-07 16:30 37.46077 126.42404 37 ft 13 kts 64°
2026-05-07 16:30 37.46133 126.42501 37 ft 14 kts 53°
2026-05-07 16:30 37.46194 126.42610 37 ft 16 kts 56°
2026-05-07 16:31 37.46241 126.42704 37 ft 11 kts 71°
2026-05-07 16:31 37.46213 126.42776 37 ft 10 kts 144°
2026-05-07 16:31 37.46150 126.42830 37 ft 12 kts 146°
2026-05-07 16:31 37.46076 126.42894 37 ft 14 kts 145°
2026-05-07 16:32 37.45990 126.42971 37 ft 16 kts 144°
2026-05-07 16:32 37.45894 126.43058 37 ft 18 kts 144°
2026-05-07 16:32 37.45814 126.43149 37 ft 12 kts 111°
2026-05-07 16:32 37.45837 126.43236 37 ft 11 kts 55°
2026-05-07 16:33 37.45886 126.43325 37 ft 13 kts 55°
2026-05-07 16:33 37.45943 126.43426 37 ft 15 kts 54°
2026-05-07 16:33 37.46007 126.43539 37 ft 17 kts 54°
2026-05-07 16:33 37.46077 126.43663 37 ft 18 kts 54°
2026-05-07 16:34 37.46154 126.43798 37 ft 20 kts 54°
2026-05-07 16:34 37.46235 126.43942 37 ft 21 kts 54°
2026-05-07 16:34 37.46301 126.44059 37 ft 13 kts 54°
2026-05-07 16:34 37.46356 126.44086 37 ft 6 kts 337°
2026-05-07 16:35 37.46392 126.44054 37 ft 7 kts 323°
2026-05-07 16:35 37.46438 126.44013 37 ft 9 kts 325°
2026-05-07 16:35 37.46492 126.43965 37 ft 10 kts 325°
2026-05-07 16:35 37.46555 126.43909 35 ft 12 kts 324°
2026-05-07 16:36 37.46618 126.43854 37 ft 6 kts 325°
2026-05-07 16:36 37.46656 126.43829 35 ft 4 kts 354°
2026-05-07 16:36 37.46676 126.43841 37 ft 4 kts 30°
2026-05-07 16:36 37.46706 126.43863 37 ft 6 kts 30°
2026-05-07 16:37 37.46734 126.43882 37 ft 3 kts 29°
2026-05-07 16:37 37.46738 126.43885 37 ft 0 kts 29°